FENGYUN 1C DEB

Satellite information

Favourite Embed

Satellite Type and Status

DEBRISIN ORBIT

Key statistics

Satellite FENGYUN 1C DEB at a glance.

Uptime

9556

Days in orbit

Revolutions

≈ 14.0

Per day

Orbit

SSO

Sun Synchronous Orbit

Inclination

98.4

Latest

Satellite identification and parameters

Extended collection of information and parameters for FENGYUN 1C DEB.

Object identification

Identified? True

Debris? True

Object name: FENGYUN 1C DEB

International designator: 1999-025ANQ

Object number (NORAD): 30633

Object ID (CCSDS): 30633

Country: PEOPLES REPUBLIC OF CHINA (PRC)

Current information (Y/N): Y

RCS size: SMALL

Orbital parameters

Period: 102.575 minutes

Inclination: 98.4385 deg

SMA: 7258.65 km

Apoapsis: 976.714 km

Periapsis: 784.316 km

RAAN: 64.0126 deg

Eccentricy: 0.013253

Argument of periapsis: 350.7819 deg

Mean anomaly: 37.7741 deg

Mean motion: 14.03844454 rev/day

Mean motion (dot): 0.00000997 rev/day2

B* drag term: 0.00060851 1/REarth

Two-line elements (TLE)

Creation date: July 6, 2025, 6:05 p.m.

Reference frame: TEME

Reference center: EARTH

Epoch: July 6, 2025, 2:47 p.m. UTC

TLE line 0: 0 FENGYUN 1C DEB

TLE line 1: 1 30633U 99025ANQ 25187.61638527 .00000997 00000-0 60851-3 0 9999

TLE line 2: 2 30633 98.4385 64.0126 0132530 350.7819 37.7741 14.03844454936598

Live tracking on map

Real-time ground track for satellite FENGYUN 1C DEB.

In-orbit conjunctions

A list of the most updated potential collisions computed for object FENGYUN 1C DEB.

Target Orbit TCA Probability of collision Miss distance Type
NADEZHDA 7 LEO 2025-06-11 01:51:07 0.0001527031 621.0 (m) PAYLOAD
IRIDIUM 33 DEB LEO 2025-04-04 00:18:08 0.0001398389 166.0 (m) DEBRIS
FENGYUN 1C DEB SSO 2024-06-13 12:31:22 0.0001085511 140.0 (m) DEBRIS

Associated space launch

Chinese polar orbiting meteorological satellite

FENGYUN 1C DEB was lifted into orbit during the mission ‘Long March 4B | Feng Yun 1C’, on board a Long March 4B space rocket.

The launch took place on May 10, 1999, 1:33 a.m. from Launch Complex 7.

For more information about the launch, click the button.

Launch to space Long March 4B | Feng Yun 1C
Long March 4B | Feng Yun 1C

Agency: N/A

Status: Launch Successful

Launch date: May 10, 1999, 1:33 a.m. UTC

Rocket: Long March 4B

Launch pad: Launch Complex 7

Location: Taiyuan Satellite Launch Center, People's Republic of China

...

Latest news about this satellite

There are no fresh news available about this satellite. Check back as we update our databases every day.


Newsletter sign-up

Weekly statistics, charts and insights to help you stay on top of the space industry.